ENT4031 EPKT-DTNH

Flight info

Callsign ENT4031
Flight time 2h 39m
Altitude 36000
Route BABKO DCT KOPRY DCT XAMIT/N0449F350 DCT EKMIL DCT ENSOT DCT PININ DCT TUNEX UM738 DIDON G727 ATLEL ATLEL1E
Aircraft B738/M-SDGHIJ1RWXY/EB1

Departure

Time 2026-05-07 17:01
Airport Katowice Wojciech Korfanty International Airport (EPKT)

Arrival

Time 2026-05-07 19:40
Airport Enfidha - Hammamet International Airport (DTNH)
Time Latitude Longitude Altitude Speed Heading
2026-05-07 16:25 50.47162 19.06952 997 ft 0 kts 180°
2026-05-07 16:51 50.47177 19.06952 1001 ft 3 kts 180°
2026-05-07 16:51 50.47200 19.06952 999 ft 3 kts 180°
2026-05-07 16:51 50.47218 19.06952 997 ft 3 kts 165°
2026-05-07 16:52 50.47233 19.06938 999 ft 3 kts 108°
2026-05-07 16:52 50.47236 19.06906 997 ft 3 kts 90°
2026-05-07 16:52 50.47236 19.06889 997 ft 0 kts 90°
2026-05-07 16:54 50.47236 19.06890 997 ft 1 kts 90°
2026-05-07 16:54 50.47236 19.06945 1000 ft 10 kts 90°
2026-05-07 16:55 50.47235 19.07087 997 ft 15 kts 90°
2026-05-07 16:55 50.47235 19.07247 1001 ft 14 kts 90°
2026-05-07 16:55 50.47237 19.07430 997 ft 18 kts 89°
2026-05-07 16:55 50.47235 19.07620 1002 ft 17 kts 91°
2026-05-07 16:56 50.47234 19.07803 1002 ft 16 kts 89°
2026-05-07 16:56 50.47234 19.07980 997 ft 16 kts 90°
2026-05-07 16:56 50.47232 19.08362 1000 ft 18 kts 91°
2026-05-07 16:57 50.47232 19.08553 1001 ft 17 kts 89°
2026-05-07 16:57 50.47232 19.08738 1003 ft 17 kts 89°
2026-05-07 16:57 50.47233 19.08916 1003 ft 16 kts 90°
2026-05-07 16:57 50.47231 19.09086 1003 ft 15 kts 91°
2026-05-07 16:58 50.47232 19.09273 1001 ft 18 kts 89°
2026-05-07 16:58 50.47230 19.09466 1003 ft 17 kts 90°
2026-05-07 16:58 50.47230 19.09653 1003 ft 17 kts 90°
2026-05-07 16:58 50.47230 19.09833 1000 ft 16 kts 90°
2026-05-07 16:59 50.47236 19.10016 1000 ft 18 kts 68°
2026-05-07 16:59 50.47310 19.10172 1000 ft 18 kts 52°
2026-05-07 16:59 50.47384 19.10321 997 ft 17 kts 52°
2026-05-07 16:59 50.47467 19.10441 1000 ft 16 kts 10°
2026-05-07 17:00 50.47583 19.10407 997 ft 18 kts 314°
2026-05-07 17:00 50.47595 19.10215 1002 ft 19 kts 270°
2026-05-07 17:00 50.47596 19.09715 1002 ft 80 kts 270°
2026-05-07 17:00 50.47598 19.08486 996 ft 143 kts 270°
2026-05-07 17:01 50.47582 19.06668 1146 ft 181 kts 272°
2026-05-07 17:01 50.47565 19.04630 1796 ft 191 kts 274°
2026-05-07 17:01 50.47578 19.02565 2623 ft 195 kts 272°
2026-05-07 17:01 50.47590 19.00303 2874 ft 220 kts 270°
2026-05-07 17:02 50.47559 18.97845 3422 ft 228 kts 260°
2026-05-07 17:02 50.46883 18.95609 4129 ft 234 kts 229°
2026-05-07 17:02 50.45517 18.94114 4693 ft 252 kts 200°
2026-05-07 17:02 50.43751 18.93675 5433 ft 261 kts 185°
2026-05-07 17:03 50.41923 18.93658 6292 ft 265 kts 182°
2026-05-07 17:03 50.40068 18.93703 7079 ft 268 kts 182°
2026-05-07 17:03 50.38199 18.93735 7917 ft 269 kts 182°
2026-05-07 17:03 50.36321 18.93745 8762 ft 271 kts 183°
2026-05-07 17:04 50.34427 18.93743 9579 ft 274 kts 183°
2026-05-07 17:04 50.32513 18.93735 10327 ft 278 kts 182°
2026-05-07 17:04 50.30520 18.94130 10547 ft 306 kts 163°
2026-05-07 17:04 50.28504 18.95554 10759 ft 330 kts 157°
2026-05-07 17:05 50.26387 18.97213 11020 ft 349 kts 156°
2026-05-07 17:05 50.24206 18.98950 11637 ft 354 kts 156°
2026-05-07 17:05 50.21991 19.00706 12291 ft 360 kts 156°
2026-05-07 17:05 50.19747 19.02470 13010 ft 363 kts 156°
2026-05-07 17:06 50.17479 19.04236 13751 ft 365 kts 156°
2026-05-07 17:06 50.15198 19.06001 14406 ft 367 kts 156°
2026-05-07 17:06 50.12902 19.07768 15098 ft 369 kts 156°
2026-05-07 17:06 50.10596 19.09537 15735 ft 371 kts 156°
2026-05-07 17:07 50.08258 19.11325 16280 ft 376 kts 156°
2026-05-07 17:07 50.05900 19.13126 16925 ft 379 kts 156°
2026-05-07 17:07 50.03530 19.14934 17592 ft 380 kts 156°
2026-05-07 17:07 50.01152 19.16747 18230 ft 382 kts 156°
2026-05-07 17:08 49.98752 19.18573 18767 ft 385 kts 156°
2026-05-07 17:08 49.96341 19.20406 19307 ft 387 kts 156°
2026-05-07 17:08 49.93924 19.22242 19869 ft 388 kts 157°
2026-05-07 17:08 49.91494 19.24085 20413 ft 390 kts 157°
2026-05-07 17:09 49.89048 19.25938 20906 ft 392 kts 157°
2026-05-07 17:09 49.86594 19.27796 21424 ft 394 kts 157°
2026-05-07 17:09 49.84121 19.29665 21913 ft 396 kts 158°
2026-05-07 17:09 49.81637 19.31541 22385 ft 399 kts 158°
2026-05-07 17:10 49.79133 19.33430 22889 ft 401 kts 158°
2026-05-07 17:10 49.76618 19.35325 23298 ft 404 kts 158°
2026-05-07 17:10 49.74080 19.37235 23666 ft 408 kts 158°
2026-05-07 17:10 49.71521 19.39161 24055 ft 410 kts 158°
2026-05-07 17:11 49.68956 19.41088 24466 ft 411 kts 158°
2026-05-07 17:11 49.66386 19.43016 24896 ft 411 kts 158°
2026-05-07 17:11 49.63747 19.44666 25241 ft 408 kts 170°
2026-05-07 17:11 49.60936 19.45013 25540 ft 406 kts 185°
2026-05-07 17:12 49.58193 19.44325 25913 ft 405 kts 198°
2026-05-07 17:12 49.55600 19.42640 26269 ft 406 kts 206°
2026-05-07 17:12 49.53086 19.40647 26618 ft 408 kts 207°
2026-05-07 17:12 49.50573 19.38597 26946 ft 409 kts 208°
2026-05-07 17:13 49.48054 19.36534 27268 ft 411 kts 207°
2026-05-07 17:13 49.45519 19.34470 27592 ft 413 kts 207°
2026-05-07 17:13 49.42972 19.32413 27902 ft 414 kts 207°
2026-05-07 17:13 49.40413 19.30363 28228 ft 416 kts 207°
2026-05-07 17:14 49.37840 19.28314 28516 ft 418 kts 207°
2026-05-07 17:14 49.35257 19.26266 28837 ft 418 kts 207°
2026-05-07 17:14 49.32682 19.24229 29350 ft 414 kts 207°
2026-05-07 17:14 49.30134 19.22217 29878 ft 411 kts 207°
2026-05-07 17:15 49.27598 19.20218 30266 ft 409 kts 207°
2026-05-07 17:15 49.25066 19.18225 30632 ft 408 kts 208°
2026-05-07 17:15 49.22552 19.16248 31041 ft 405 kts 208°
2026-05-07 17:15 49.20057 19.14289 31424 ft 402 kts 208°
2026-05-07 17:16 49.17572 19.12339 31823 ft 400 kts 207°
2026-05-07 17:16 49.15107 19.10406 32232 ft 397 kts 208°
2026-05-07 17:16 49.12692 19.08506 32632 ft 394 kts 208°
2026-05-07 17:16 49.10260 19.06597 32988 ft 392 kts 207°
2026-05-07 17:17 49.07837 19.04706 33333 ft 391 kts 208°
2026-05-07 17:17 49.05421 19.02824 33668 ft 389 kts 208°
2026-05-07 17:17 49.03015 19.00952 34080 ft 386 kts 208°
2026-05-07 17:17 49.00631 18.99098 34321 ft 385 kts 208°
2026-05-07 17:18 48.95813 18.95354 34546 ft 391 kts 208°
2026-05-07 17:18 48.93396 18.93478 34774 ft 390 kts 208°
2026-05-07 17:18 48.90971 18.91598 34930 ft 391 kts 208°
2026-05-07 17:19 48.88540 18.89715 35074 ft 393 kts 208°
2026-05-07 17:19 48.86098 18.87826 35219 ft 394 kts 208°
2026-05-07 17:19 48.83650 18.85934 35361 ft 396 kts 208°
2026-05-07 17:19 48.81195 18.84039 35524 ft 397 kts 208°
2026-05-07 17:20 48.78733 18.82140 35697 ft 397 kts 208°
2026-05-07 17:20 48.76270 18.80244 35857 ft 398 kts 208°
2026-05-07 17:20 48.71318 18.76435 35975 ft 401 kts 208°
2026-05-07 17:21 48.66348 18.72622 35982 ft 400 kts 208°
2026-05-07 17:21 48.61395 18.68829 35979 ft 398 kts 208°
2026-05-07 17:22 48.56463 18.65052 35981 ft 397 kts 208°
2026-05-07 17:22 48.52358 18.61928 35983 ft 397 kts 208°
2026-05-07 17:23 48.47440 18.58147 35983 ft 397 kts 208°
2026-05-07 17:23 48.41694 18.53811 35973 ft 398 kts 208°
2026-05-07 17:24 48.37545 18.50681 35986 ft 399 kts 208°
2026-05-07 17:24 48.32577 18.46932 35979 ft 400 kts 208°
2026-05-07 17:25 48.27590 18.43173 35978 ft 401 kts 208°
2026-05-07 17:25 48.22625 18.39437 35972 ft 402 kts 208°
2026-05-07 17:26 48.17613 18.35673 35976 ft 403 kts 208°
2026-05-07 17:26 48.12594 18.31913 35973 ft 404 kts 208°
2026-05-07 17:27 48.07563 18.28151 35971 ft 404 kts 208°
2026-05-07 17:27 48.02528 18.24396 35966 ft 404 kts 208°
2026-05-07 17:28 47.97497 18.20652 35973 ft 404 kts 208°
2026-05-07 17:28 47.92473 18.16921 35971 ft 403 kts 208°
2026-05-07 17:29 47.87451 18.13200 35972 ft 403 kts 208°
2026-05-07 17:29 47.82433 18.09489 35971 ft 402 kts 208°
2026-05-07 17:30 47.77432 18.05799 35970 ft 401 kts 208°
2026-05-07 17:30 47.72426 18.02114 35979 ft 401 kts 208°
2026-05-07 17:31 47.67426 17.98440 35974 ft 401 kts 208°
2026-05-07 17:31 47.62425 17.94774 35971 ft 401 kts 208°
2026-05-07 17:32 47.57419 17.91112 35976 ft 401 kts 208°
2026-05-07 17:32 47.52447 17.87483 35979 ft 402 kts 208°
2026-05-07 17:33 47.47424 17.83824 35978 ft 402 kts 208°
2026-05-07 17:33 47.42396 17.80170 35969 ft 403 kts 208°
2026-05-07 17:34 47.37358 17.76516 35969 ft 404 kts 208°
2026-05-07 17:34 47.32304 17.72858 35971 ft 404 kts 208°
2026-05-07 17:35 47.27249 17.69208 35965 ft 405 kts 208°
2026-05-07 17:35 47.22194 17.65564 35960 ft 405 kts 208°
2026-05-07 17:36 47.17131 17.61924 35968 ft 405 kts 208°
2026-05-07 17:36 47.12065 17.58289 35970 ft 405 kts 208°
2026-05-07 17:37 47.06987 17.54653 35986 ft 409 kts 209°
2026-05-07 17:37 47.01832 17.50967 35986 ft 416 kts 209°
2026-05-07 17:38 46.96607 17.47243 35980 ft 419 kts 208°
2026-05-07 17:38 46.91362 17.43513 35980 ft 420 kts 208°
2026-05-07 17:39 46.86102 17.39780 35980 ft 420 kts 209°
2026-05-07 17:39 46.80857 17.36066 35976 ft 419 kts 209°
2026-05-07 17:40 46.75618 17.32364 35987 ft 418 kts 209°
2026-05-07 17:40 46.70386 17.28674 36015 ft 417 kts 209°
2026-05-07 17:41 46.65166 17.25001 35999 ft 416 kts 209°
2026-05-07 17:41 46.59949 17.21338 35984 ft 416 kts 209°
2026-05-07 17:42 46.54739 17.17686 35998 ft 415 kts 209°
2026-05-07 17:42 46.49531 17.14045 35959 ft 415 kts 210°
2026-05-07 17:43 46.44326 17.10414 35978 ft 415 kts 210°
2026-05-07 17:43 46.39127 17.06793 35981 ft 415 kts 210°
2026-05-07 17:44 46.33922 17.03176 35988 ft 415 kts 210°
2026-05-07 17:44 46.28710 16.99561 35974 ft 415 kts 210°
2026-05-07 17:45 46.23494 16.95949 35985 ft 416 kts 210°
2026-05-07 17:45 46.18382 16.92065 35993 ft 415 kts 212°
2026-05-07 17:46 46.13320 16.88034 35988 ft 416 kts 213°
2026-05-07 17:46 46.08243 16.84021 35989 ft 416 kts 212°
2026-05-07 17:47 46.03147 16.80038 35992 ft 417 kts 212°
2026-05-07 17:47 45.98040 16.76070 35992 ft 417 kts 212°
2026-05-07 17:48 45.92929 16.72113 35980 ft 417 kts 212°
2026-05-07 17:48 45.87819 16.68164 35995 ft 417 kts 212°
2026-05-07 17:49 45.82708 16.64222 35997 ft 417 kts 212°
2026-05-07 17:49 45.77599 16.60290 35998 ft 417 kts 212°
2026-05-07 17:50 45.72488 16.56366 35994 ft 417 kts 212°
2026-05-07 17:50 45.67383 16.52452 36001 ft 416 kts 212°
2026-05-07 17:51 45.62307 16.48569 36000 ft 416 kts 212°
2026-05-07 17:51 45.57166 16.44645 36004 ft 417 kts 212°
2026-05-07 17:52 45.52085 16.40774 36005 ft 417 kts 212°
2026-05-07 17:52 45.46969 16.36885 35999 ft 417 kts 212°
2026-05-07 17:53 45.41855 16.33006 35999 ft 416 kts 212°
2026-05-07 17:53 45.36740 16.29134 35989 ft 416 kts 212°
2026-05-07 17:54 45.31625 16.25270 36003 ft 417 kts 212°
2026-05-07 17:54 45.26502 16.21408 36007 ft 416 kts 212°
2026-05-07 17:55 45.21380 16.17555 36002 ft 417 kts 212°
2026-05-07 17:55 45.16251 16.13704 36005 ft 417 kts 212°
2026-05-07 17:56 45.11121 16.09860 36002 ft 417 kts 212°
2026-05-07 17:56 45.05985 16.06020 36005 ft 418 kts 212°
2026-05-07 17:57 45.01681 16.02808 35979 ft 418 kts 212°
2026-05-07 17:57 44.95709 15.98360 36007 ft 418 kts 212°
2026-05-07 17:58 44.90564 15.94536 36012 ft 418 kts 212°
2026-05-07 17:58 44.85409 15.90713 36011 ft 419 kts 212°
2026-05-07 17:59 44.80251 15.86896 36009 ft 419 kts 212°
2026-05-07 17:59 44.75090 15.83084 36007 ft 419 kts 212°
2026-05-07 18:00 44.69931 15.79282 36017 ft 419 kts 212°
2026-05-07 18:00 44.64776 15.75487 36034 ft 418 kts 212°
2026-05-07 18:01 44.59618 15.71698 36029 ft 418 kts 212°
2026-05-07 18:01 44.54464 15.67925 36031 ft 418 kts 212°
2026-05-07 18:02 44.46738 15.62280 36030 ft 417 kts 212°
2026-05-07 18:03 44.41588 15.58526 36030 ft 417 kts 212°
2026-05-07 18:03 44.36442 15.54782 36019 ft 417 kts 212°
2026-05-07 18:04 44.31292 15.51043 36009 ft 417 kts 213°
2026-05-07 18:04 44.26144 15.47312 36035 ft 417 kts 213°
2026-05-07 18:05 44.20992 15.43585 36052 ft 417 kts 213°
2026-05-07 18:05 44.15838 15.39866 36046 ft 417 kts 213°
2026-05-07 18:06 44.10682 15.36152 36063 ft 417 kts 213°
2026-05-07 18:06 44.05533 15.32450 36048 ft 417 kts 213°
2026-05-07 18:07 44.00385 15.28757 36043 ft 416 kts 213°
2026-05-07 18:07 43.95241 15.25073 36023 ft 416 kts 213°
2026-05-07 18:08 43.90975 15.22023 36031 ft 415 kts 213°
2026-05-07 18:08 43.85845 15.18363 36034 ft 415 kts 213°
2026-05-07 18:09 43.79882 15.14117 36024 ft 414 kts 213°
2026-05-07 18:09 43.74756 15.10474 36024 ft 414 kts 213°
2026-05-07 18:10 43.70461 15.07428 36025 ft 414 kts 213°
2026-05-07 18:10 43.65332 15.03796 36021 ft 414 kts 213°
2026-05-07 18:11 43.60205 15.00173 36004 ft 414 kts 213°
2026-05-07 18:11 43.55083 14.96560 36013 ft 413 kts 213°
2026-05-07 18:12 43.49966 14.92957 36022 ft 413 kts 213°
2026-05-07 18:12 43.44842 14.89356 36019 ft 414 kts 213°
2026-05-07 18:13 43.39723 14.85766 36002 ft 412 kts 213°
2026-05-07 18:13 43.34617 14.82191 36006 ft 412 kts 213°
2026-05-07 18:14 43.29472 14.78703 36013 ft 413 kts 211°
2026-05-07 18:14 43.24191 14.75570 36007 ft 413 kts 210°
2026-05-07 18:15 43.18897 14.72502 36008 ft 412 kts 210°
2026-05-07 18:15 43.13632 14.69430 36006 ft 411 kts 210°
2026-05-07 18:16 43.08381 14.66350 36012 ft 410 kts 210°
2026-05-07 18:16 43.03145 14.63277 35999 ft 409 kts 210°
2026-05-07 18:17 42.97922 14.60217 36001 ft 408 kts 210°
2026-05-07 18:17 42.92744 14.57188 36006 ft 407 kts 210°
2026-05-07 18:18 42.87533 14.54146 35989 ft 407 kts 210°
2026-05-07 18:18 42.82332 14.51116 35998 ft 406 kts 210°
2026-05-07 18:19 42.77135 14.48093 36007 ft 406 kts 210°
2026-05-07 18:19 42.71930 14.45071 36005 ft 407 kts 210°
2026-05-07 18:20 42.66718 14.42051 35997 ft 407 kts 210°
2026-05-07 18:20 42.61494 14.39030 36001 ft 408 kts 210°
2026-05-07 18:20 42.58869 14.37511 35743 ft 413 kts 210°
2026-05-07 18:21 42.56228 14.35987 35505 ft 411 kts 210°
2026-05-07 18:21 42.53599 14.34473 35259 ft 409 kts 210°
2026-05-07 18:21 42.50976 14.32963 35064 ft 412 kts 210°
2026-05-07 18:22 42.45676 14.29911 35028 ft 415 kts 210°
2026-05-07 18:22 42.40374 14.26871 35018 ft 413 kts 210°
2026-05-07 18:23 42.35092 14.23845 35016 ft 412 kts 210°
2026-05-07 18:23 42.29821 14.20829 35018 ft 411 kts 209°
2026-05-07 18:24 42.24558 14.17823 35012 ft 410 kts 210°
2026-05-07 18:24 42.19278 14.14895 35010 ft 413 kts 205°
2026-05-07 18:24 42.16640 14.13476 34988 ft 403 kts 217°
2026-05-07 18:25 42.14203 14.11632 35002 ft 402 kts 215°
2026-05-07 18:25 42.09273 14.07978 35013 ft 409 kts 214°
2026-05-07 18:26 42.04211 14.04323 35018 ft 414 kts 214°
2026-05-07 18:26 41.99127 14.00689 35006 ft 413 kts 214°
2026-05-07 18:27 41.94060 13.97073 34986 ft 413 kts 214°
2026-05-07 18:27 41.89005 13.93461 35006 ft 411 kts 214°
2026-05-07 18:28 41.83950 13.89850 35006 ft 412 kts 214°
2026-05-07 18:28 41.78893 13.86248 35011 ft 411 kts 214°
2026-05-07 18:29 41.73834 13.82652 34972 ft 412 kts 213°
2026-05-07 18:29 41.68772 13.79061 34978 ft 412 kts 214°
2026-05-07 18:30 41.63703 13.75468 34979 ft 412 kts 213°
2026-05-07 18:30 41.58630 13.71880 34964 ft 413 kts 213°
2026-05-07 18:31 41.53547 13.68291 34962 ft 413 kts 214°
2026-05-07 18:31 41.48454 13.64702 34969 ft 414 kts 214°
2026-05-07 18:32 41.43345 13.61109 34950 ft 416 kts 214°
2026-05-07 18:32 41.38222 13.57512 34902 ft 416 kts 214°
2026-05-07 18:33 41.33105 13.53926 34934 ft 416 kts 214°
2026-05-07 18:33 41.27993 13.50352 34933 ft 415 kts 214°
2026-05-07 18:34 41.22879 13.46780 34943 ft 416 kts 214°
2026-05-07 18:34 41.17754 13.43205 34924 ft 415 kts 214°
2026-05-07 18:35 41.12657 13.39660 34922 ft 413 kts 214°
2026-05-07 18:35 41.07583 13.36136 34926 ft 411 kts 214°
2026-05-07 18:36 41.02522 13.32625 34929 ft 410 kts 214°
2026-05-07 18:36 40.97477 13.29133 34922 ft 408 kts 214°
2026-05-07 18:37 40.92464 13.25670 34922 ft 405 kts 214°
2026-05-07 18:37 40.87475 13.22227 34924 ft 404 kts 214°
2026-05-07 18:38 40.82498 13.18798 34926 ft 403 kts 214°
2026-05-07 18:38 40.77542 13.15392 34923 ft 400 kts 214°
2026-05-07 18:39 40.72615 13.12009 34935 ft 399 kts 214°
2026-05-07 18:39 40.67696 13.08637 34928 ft 398 kts 214°
2026-05-07 18:40 40.62806 13.05291 34938 ft 399 kts 214°
2026-05-07 18:40 40.57884 13.01928 34920 ft 398 kts 214°
2026-05-07 18:41 40.52965 12.98576 34923 ft 398 kts 214°
2026-05-07 18:41 40.47987 12.95355 34923 ft 399 kts 213°
2026-05-07 18:42 40.42983 12.92200 34918 ft 399 kts 213°
2026-05-07 18:42 40.37979 12.89042 34916 ft 398 kts 213°
2026-05-07 18:43 40.33011 12.85898 34920 ft 396 kts 213°
2026-05-07 18:43 40.28055 12.82760 34922 ft 395 kts 213°
2026-05-07 18:44 40.23115 12.79635 34925 ft 394 kts 213°
2026-05-07 18:44 40.18180 12.76517 34930 ft 393 kts 213°
2026-05-07 18:45 40.13255 12.73410 34920 ft 393 kts 213°
2026-05-07 18:45 40.08331 12.70311 34922 ft 393 kts 213°
2026-05-07 18:46 40.03408 12.67217 34920 ft 393 kts 212°
2026-05-07 18:46 39.98483 12.64126 34919 ft 393 kts 212°
2026-05-07 18:47 39.93552 12.61036 34926 ft 393 kts 212°
2026-05-07 18:47 39.88614 12.57947 34926 ft 394 kts 212°
2026-05-07 18:48 39.83669 12.54859 34919 ft 394 kts 212°
2026-05-07 18:48 39.78720 12.51773 34906 ft 394 kts 212°
2026-05-07 18:49 39.73776 12.48698 34918 ft 393 kts 212°
2026-05-07 18:49 39.68848 12.45635 34918 ft 392 kts 212°
2026-05-07 18:50 39.63929 12.42583 34923 ft 392 kts 212°
2026-05-07 18:50 39.59018 12.39539 34932 ft 392 kts 212°
2026-05-07 18:51 39.54101 12.36498 34917 ft 391 kts 212°
2026-05-07 18:51 39.49189 12.33465 34918 ft 391 kts 212°
2026-05-07 18:52 39.44284 12.30440 34918 ft 391 kts 212°
2026-05-07 18:52 39.40204 12.27928 34920 ft 391 kts 212°
2026-05-07 18:53 39.35298 12.24912 34917 ft 389 kts 212°
2026-05-07 18:53 39.30423 12.21921 34918 ft 387 kts 212°
2026-05-07 18:54 39.25565 12.18944 34915 ft 386 kts 212°
2026-05-07 18:54 39.20717 12.15976 34915 ft 385 kts 212°
2026-05-07 18:55 39.15880 12.13020 34904 ft 384 kts 212°
2026-05-07 18:55 39.11061 12.10080 34906 ft 382 kts 212°
2026-05-07 18:56 39.06257 12.07154 34913 ft 381 kts 212°
2026-05-07 18:56 39.01465 12.04239 34945 ft 381 kts 212°
2026-05-07 18:57 38.96672 12.01322 34924 ft 382 kts 212°
2026-05-07 18:57 38.91864 11.98408 34906 ft 382 kts 212°
2026-05-07 18:58 38.87054 11.95497 34917 ft 382 kts 212°
2026-05-07 18:58 38.82238 11.92585 34917 ft 383 kts 212°
2026-05-07 18:59 38.77450 11.89695 34918 ft 383 kts 212°
2026-05-07 18:59 38.72626 11.86787 34913 ft 383 kts 212°
2026-05-07 19:00 38.67816 11.83893 34915 ft 381 kts 212°
2026-05-07 19:00 38.63019 11.81009 34922 ft 380 kts 212°
2026-05-07 19:01 38.58231 11.78136 34925 ft 380 kts 212°
2026-05-07 19:01 38.53442 11.75266 34919 ft 380 kts 212°
2026-05-07 19:02 38.48672 11.72412 34911 ft 378 kts 212°
2026-05-07 19:02 38.43923 11.69576 34913 ft 376 kts 212°
2026-05-07 19:03 38.39193 11.66749 34926 ft 376 kts 211°
2026-05-07 19:03 38.34444 11.63919 34924 ft 377 kts 211°
2026-05-07 19:04 38.29678 11.61085 34911 ft 378 kts 211°
2026-05-07 19:04 38.24908 11.58253 34913 ft 378 kts 211°
2026-05-07 19:05 38.20142 11.55427 34916 ft 378 kts 211°
2026-05-07 19:05 38.15385 11.52609 34917 ft 377 kts 211°
2026-05-07 19:06 38.10624 11.49793 34917 ft 377 kts 211°
2026-05-07 19:06 38.03494 11.45583 34912 ft 376 kts 211°
2026-05-07 19:07 37.98754 11.42788 34918 ft 375 kts 211°
2026-05-07 19:07 37.94010 11.40017 34916 ft 377 kts 209°
2026-05-07 19:08 37.88910 11.38137 34921 ft 385 kts 201°
2026-05-07 19:08 37.83683 11.36618 34914 ft 385 kts 201°
2026-05-07 19:09 37.78459 11.35076 34917 ft 385 kts 201°
2026-05-07 19:09 37.73237 11.33527 34915 ft 386 kts 201°
2026-05-07 19:10 37.68016 11.31979 34918 ft 386 kts 201°
2026-05-07 19:10 37.62785 11.30431 34908 ft 386 kts 201°
2026-05-07 19:11 37.57557 11.28885 34910 ft 387 kts 201°
2026-05-07 19:11 37.52309 11.27332 34913 ft 388 kts 201°
2026-05-07 19:12 37.47049 11.25775 34826 ft 391 kts 201°
2026-05-07 19:12 37.44383 11.24985 34523 ft 394 kts 201°
2026-05-07 19:12 37.41711 11.24195 34038 ft 396 kts 201°
2026-05-07 19:13 37.39045 11.23411 33604 ft 393 kts 201°
2026-05-07 19:13 37.36373 11.22624 33141 ft 395 kts 201°
2026-05-07 19:13 37.33692 11.21834 32686 ft 397 kts 200°
2026-05-07 19:13 37.30995 11.21039 32237 ft 400 kts 200°
2026-05-07 19:14 37.28275 11.20237 31781 ft 403 kts 200°
2026-05-07 19:14 37.25521 11.19425 31323 ft 411 kts 199°
2026-05-07 19:14 37.22706 11.18595 30857 ft 420 kts 199°
2026-05-07 19:14 37.19845 11.17755 30363 ft 423 kts 198°
2026-05-07 19:15 37.16966 11.16913 29837 ft 425 kts 199°
2026-05-07 19:15 37.14086 11.16074 29309 ft 425 kts 199°
2026-05-07 19:15 37.11202 11.15232 28785 ft 426 kts 199°
2026-05-07 19:15 37.08352 11.14399 28282 ft 426 kts 199°
2026-05-07 19:16 37.05426 11.13544 27770 ft 427 kts 198°
2026-05-07 19:16 37.02554 11.12708 27251 ft 415 kts 198°
2026-05-07 19:16 36.99837 11.11921 26772 ft 398 kts 198°
2026-05-07 19:16 36.97201 11.11155 26315 ft 382 kts 198°
2026-05-07 19:17 36.94660 11.10414 25854 ft 368 kts 199°
2026-05-07 19:17 36.92215 11.09702 25444 ft 354 kts 199°
2026-05-07 19:17 36.89857 11.09016 25057 ft 343 kts 199°
2026-05-07 19:17 36.87575 11.08332 24683 ft 332 kts 200°
2026-05-07 19:18 36.85349 11.07642 24114 ft 328 kts 200°
2026-05-07 19:18 36.83131 11.06948 23431 ft 329 kts 199°
2026-05-07 19:18 36.80908 11.06254 22680 ft 329 kts 199°
2026-05-07 19:18 36.78699 11.05569 22081 ft 325 kts 199°
2026-05-07 19:19 36.76526 11.04898 21594 ft 318 kts 199°
2026-05-07 19:19 36.74410 11.04248 21214 ft 309 kts 199°
2026-05-07 19:19 36.72344 11.03612 20860 ft 302 kts 199°
2026-05-07 19:19 36.70323 11.02992 20497 ft 297 kts 200°
2026-05-07 19:20 36.68294 11.02375 20072 ft 305 kts 200°
2026-05-07 19:20 36.66199 11.01741 19724 ft 311 kts 200°
2026-05-07 19:20 36.64119 11.01120 19362 ft 303 kts 200°
2026-05-07 19:20 36.62093 11.00518 19012 ft 296 kts 200°
2026-05-07 19:21 36.60112 10.99928 18698 ft 290 kts 200°
2026-05-07 19:21 36.58162 10.99344 18384 ft 288 kts 200°
2026-05-07 19:21 36.56180 10.98745 18072 ft 300 kts 200°
2026-05-07 19:21 36.54138 10.98129 17691 ft 301 kts 200°
2026-05-07 19:22 36.52132 10.97532 17324 ft 292 kts 200°
2026-05-07 19:22 36.50184 10.96954 17012 ft 284 kts 200°
2026-05-07 19:22 36.48279 10.96386 16665 ft 279 kts 201°
2026-05-07 19:22 36.46393 10.95821 16408 ft 281 kts 201°
2026-05-07 19:23 36.44439 10.95229 16102 ft 295 kts 201°
2026-05-07 19:23 36.42460 10.94638 15747 ft 290 kts 201°
2026-05-07 19:23 36.40527 10.94066 15421 ft 282 kts 201°
2026-05-07 19:23 36.38640 10.93505 15117 ft 277 kts 201°
2026-05-07 19:24 36.36777 10.92950 14823 ft 276 kts 201°
2026-05-07 19:24 36.34880 10.92379 14550 ft 288 kts 201°
2026-05-07 19:24 36.33054 10.91448 14206 ft 277 kts 221°
2026-05-07 19:24 36.31665 10.89899 13891 ft 263 kts 234°
2026-05-07 19:25 36.30630 10.88070 13579 ft 256 kts 240°
2026-05-07 19:25 36.29680 10.86220 13241 ft 254 kts 240°
2026-05-07 19:25 36.28726 10.84343 12949 ft 263 kts 240°
2026-05-07 19:25 36.27736 10.82406 12627 ft 266 kts 240°
2026-05-07 19:26 36.26758 10.80507 12330 ft 256 kts 239°
2026-05-07 19:26 36.25807 10.78669 12000 ft 251 kts 240°
2026-05-07 19:26 36.24870 10.76864 11736 ft 248 kts 240°
2026-05-07 19:26 36.23926 10.75046 11459 ft 256 kts 240°
2026-05-07 19:27 36.22943 10.73155 11143 ft 262 kts 239°
2026-05-07 19:27 36.21968 10.71285 10829 ft 254 kts 239°
2026-05-07 19:27 36.21021 10.69472 10531 ft 248 kts 239°
2026-05-07 19:27 36.20085 10.67682 10236 ft 246 kts 239°
2026-05-07 19:28 36.19169 10.65931 10149 ft 242 kts 239°
2026-05-07 19:28 36.18241 10.64155 10052 ft 248 kts 239°
2026-05-07 19:28 36.17311 10.62383 9931 ft 240 kts 239°
2026-05-07 19:28 36.16417 10.60683 9652 ft 231 kts 239°
2026-05-07 19:29 36.15552 10.59036 9407 ft 227 kts 239°
2026-05-07 19:29 36.14696 10.57405 9148 ft 226 kts 239°
2026-05-07 19:29 36.13826 10.55747 8911 ft 235 kts 238°
2026-05-07 19:29 36.12917 10.54016 8633 ft 241 kts 238°
2026-05-07 19:30 36.12015 10.52300 8336 ft 234 kts 238°
2026-05-07 19:30 36.11148 10.50653 8069 ft 230 kts 238°
2026-05-07 19:30 36.10274 10.48994 7821 ft 231 kts 238°
2026-05-07 19:30 36.09375 10.47285 7567 ft 238 kts 238°
2026-05-07 19:31 36.08461 10.45552 7294 ft 241 kts 238°
2026-05-07 19:31 36.07568 10.43858 7006 ft 234 kts 238°
2026-05-07 19:31 36.06800 10.42095 6735 ft 226 kts 245°
2026-05-07 19:31 36.06183 10.40364 6486 ft 219 kts 246°
2026-05-07 19:32 36.05580 10.38640 6237 ft 213 kts 245°
2026-05-07 19:32 36.05003 10.37004 6006 ft 208 kts 245°
2026-05-07 19:32 36.04430 10.35392 5867 ft 202 kts 245°
2026-05-07 19:32 36.03861 10.33801 5667 ft 203 kts 245°
2026-05-07 19:33 36.03286 10.32202 5445 ft 205 kts 245°
2026-05-07 19:33 36.02703 10.30587 5195 ft 207 kts 245°
2026-05-07 19:33 36.02111 10.28950 4956 ft 210 kts 244°
2026-05-07 19:33 36.01510 10.27294 4725 ft 213 kts 245°
2026-05-07 19:34 36.00903 10.25624 4464 ft 213 kts 244°
2026-05-07 19:34 36.00296 10.23955 4225 ft 213 kts 244°
2026-05-07 19:34 35.99727 10.22289 4137 ft 209 kts 254°
2026-05-07 19:34 35.99792 10.20501 4032 ft 216 kts 289°
2026-05-07 19:35 36.00698 10.18962 3961 ft 232 kts 320°
2026-05-07 19:35 36.02197 10.18156 3896 ft 239 kts 345°
2026-05-07 19:35 36.03816 10.17739 3788 ft 237 kts 347°
2026-05-07 19:35 36.05450 10.17459 3594 ft 240 kts
2026-05-07 19:36 36.06974 10.18204 3388 ft 237 kts 45°
2026-05-07 19:36 36.07734 10.19899 3143 ft 223 kts 86°
2026-05-07 19:36 36.07706 10.21745 3017 ft 209 kts 94°
2026-05-07 19:36 36.07683 10.23509 2900 ft 203 kts 92°
2026-05-07 19:37 36.07673 10.25249 2668 ft 201 kts 91°
2026-05-07 19:37 36.07663 10.26961 2406 ft 197 kts 90°
2026-05-07 19:37 36.07653 10.28605 2146 ft 186 kts 90°
2026-05-07 19:37 36.07644 10.30158 1900 ft 176 kts 90°
2026-05-07 19:38 36.07638 10.31135 1743 ft 167 kts 90°
2026-05-07 19:38 36.07630 10.32502 1554 ft 152 kts 90°
2026-05-07 19:38 36.07623 10.33778 1359 ft 147 kts 90°
2026-05-07 19:38 36.07616 10.35059 1166 ft 150 kts 90°
2026-05-07 19:39 36.07610 10.36334 957 ft 147 kts 90°
2026-05-07 19:39 36.07603 10.37588 761 ft 146 kts 89°
2026-05-07 19:39 36.07597 10.38853 589 ft 149 kts 90°
2026-05-07 19:39 36.07590 10.40142 367 ft 151 kts 90°
2026-05-07 19:40 36.07585 10.41422 157 ft 148 kts 89°
2026-05-07 19:40 36.07581 10.42676 27 ft 140 kts 88°
2026-05-07 19:40 36.07578 10.43687 18 ft 66 kts 90°
2026-05-07 19:40 36.07583 10.44125 17 ft 36 kts 81°
2026-05-07 19:41 36.07665 10.44380 17 ft 28 kts 48°
2026-05-07 19:41 36.07745 10.44283 17 ft 23 kts 268°
2026-05-07 19:41 36.07742 10.44090 17 ft 22 kts 269°
2026-05-07 19:41 36.07791 10.43933 17 ft 21 kts 346°
2026-05-07 19:42 36.07941 10.43922 17 ft 28 kts
2026-05-07 19:42 36.08166 10.43972 17 ft 1 kts 343°